This is the latest recevied weather packets stored in our database for station/object F6BIJ-13. If no packets are shown the sender has not sent any weather packets the latest 1 day(s).
| Time | Temp. | Humidity | Pressure | Rain* | Wind** | Luminosity | Snow |
|---|---|---|---|---|---|---|---|
| 1778012317 | 12.22° C | 91% | 1012.2 hPa | 0 mm | 0 m/s | - | - |
| 1778011957 | 12.22° C | 91% | 1012.3 hPa | 1.02 mm | 0 m/s | - | - |
| 1778011597 | 12.22° C | 89% | 1012.2 hPa | 1.52 mm | 0 m/s | - | - |
| 1778011237 | 12.22° C | 88% | 1012.2 hPa | 2.03 mm | 0 m/s | - | - |
| 1778010877 | 12.78° C | 86% | 1012.1 hPa | 1.27 mm | 0.45 m/s, 90° | - | - |
| 1778010157 | 12.22° C | 88% | 1011.9 hPa | 1.02 mm | 0.45 m/s, 180° | - | - |
| 1778009077 | 12.78° C | 86% | 1011.5 hPa | 0 mm | 0 m/s | - | - |
| 1778008716 | 12.78° C | 86% | 1011.4 hPa | 0 mm | 0 m/s | - | - |
| 1778008356 | 12.78° C | 85% | 1011.2 hPa | 0 mm | 0 m/s | - | - |
| 1778007997 | 13.33° C | 83% | 1011.2 hPa | 0 mm | 0 m/s | - | - |
| 1778007640 | 13.33° C | 81% | 1010.9 hPa | 0 mm | 0 m/s | - | - |
| 1778007277 | 13.33° C | 79% | 1010.9 hPa | 0 mm | 0.45 m/s, 135° | - | - |
| 1778006917 | 13.33° C | 79% | 1010.9 hPa | 0 mm | 0.45 m/s, 225° | - | - |
| 1778006556 | 13.89° C | 79% | 1011 hPa | 0 mm | 0 m/s | - | - |
| 1778006197 | 14.44° C | 79% | 1010.9 hPa | 0 mm | 0.89 m/s, 225° | - | - |
| 1778005837 | 14.44° C | 79% | 1010.8 hPa | 0 mm | 0.45 m/s, 315° | - | - |
| 1778005476 | 14.44° C | 81% | 1010.8 hPa | 0 mm | 0 m/s | - | - |
| 1778005116 | 15° C | 80% | 1010.7 hPa | 0 mm | 0 m/s | - | - |
| 1778004757 | 14.44° C | 79% | 1010.6 hPa | 0 mm | 0 m/s | - | - |
| 1778004037 | 15.56° C | 78% | 1010.2 hPa | 0 mm | 0.45 m/s, 180° | - | - |
| 1778003677 | 16.11° C | 76% | 1010.2 hPa | 0 mm | 0 m/s | - | - |
| 1778003316 | 16.67° C | 77% | 1009.9 hPa | 0 mm | 0 m/s | - | - |
| 1778002957 | 16.67° C | 77% | 1009.8 hPa | 0 mm | 0 m/s | - | - |
| 1778002597 | 16.67° C | 73% | 1009.7 hPa | 0 mm | 0.45 m/s, 135° | - | - |
| 1778002237 | 16.67° C | 76% | 1009.8 hPa | 0 mm | 0.89 m/s, 90° | - | - |
* Rain latest 24 hours (hover to see other rain measurements)
** Current wind speed in m/s (hover to see current wind gust speed)